Total_Precipitation_Accumulation
0.12 0.06 0.06 0.05 0.05 0.06 0.06 0.07 0.08 0.09 0.08 0.07 0.07 0.06 0.06 0.06 0.06 0.05 0.04 0.06 0.08 0.14 0.18 0.21 0.23 0.26 0.29 0.22 0.13 0.10 0.09 0.08 0.09 0.12 0.15 0.17 0.20 0.23 0.24 0.19 0.21 0.16 0.13
0.10 0.06 0.06 0.04 0.05 0.06 0.06 0.08 0.09 0.09 0.07 0.07 0.06 0.06 0.06 0.06 0.07 0.07 0.07 0.08 0.10 0.13 0.14 0.16 0.18 0.19 0.18 0.13 0.09 0.08 0.09 0.10 0.18 0.29 0.37 0.37 0.35 0.32 0.34 0.34 0.33 0.21 0.13
0.10 0.07 0.06 0.05 0.04 0.06 0.06 0.09 0.10 0.10 0.10 0.09 0.08 0.07 0.07 0.08 0.08 0.08 0.08 0.09 0.13 0.15 0.14 0.13 0.13 0.12 0.10 0.08 0.07 0.10 0.14 0.19 0.34 0.51 0.77 0.90 0.70 0.54 0.43 0.37 0.31 0.21 0.18
0.10 0.08 0.06 0.05 0.04 0.05 0.06 0.07 0.10 0.10 0.09 0.08 0.08 0.07 0.07 0.07 0.08 0.09 0.10 0.12 0.17 0.19 0.18 0.14 0.11 0.08 0.07 0.06 0.07 0.11 0.17 0.26 0.46 0.73 1.30 1.20 1.11 0.86 0.49 0.35 0.29 0.27 0.33
0.09 0.08 0.07 0.06 0.05 0.05 0.05 0.06 0.08 0.09 0.08 0.08 0.08 0.08 0.08 0.08 0.08 0.11 0.15 0.19 0.20 0.20 0.22 0.19 0.14 0.09 0.07 0.06 0.08 0.13 0.20 0.32 0.61 0.94 1.37 1.63 1.76 1.14 0.64 0.47 0.38 0.35 0.41
0.10 0.07 0.06 0.06 0.06 0.06 0.06 0.07 0.09 0.10 0.10 0.10 0.10 0.10 0.10 0.11 0.11 0.14 0.22 0.28 0.27 0.24 0.27 0.26 0.21 0.15 0.09 0.08 0.10 0.16 0.25 0.41 0.61 0.92 1.39 1.93 1.70 1.14 0.79 0.60 0.51 0.47 0.50
0.11 0.09 0.08 0.10 0.11 0.10 0.09 0.10 0.12 0.13 0.15 0.17 0.17 0.16 0.16 0.16 0.17 0.22 0.29 0.31 0.30 0.29 0.29 0.26 0.19 0.12 0.10 0.11 0.12 0.17 0.29 0.45 0.59 1.05 1.46 1.78 1.51 1.04 0.79 0.62 0.54 0.51 0.53
0.15 0.11 0.09 0.13 0.15 0.14 0.14 0.15 0.17 0.19 0.20 0.21 0.21 0.20 0.18 0.17 0.20 0.25 0.29 0.32 0.32 0.28 0.24 0.19 0.15 0.13 0.13 0.14 0.16 0.20 0.29 0.35 0.46 0.95 1.31 1.43 1.13 0.92 0.77 0.60 0.50 0.45 0.43
0.23 0.21 0.20 0.21 0.20 0.22 0.27 0.29 0.29 0.28 0.27 0.26 0.23 0.21 0.18 0.19 0.22 0.26 0.31 0.36 0.34 0.25 0.20 0.18 0.16 0.14 0.13 0.13 0.14 0.17 0.23 0.33 0.41 0.74 1.22 1.43 0.95 0.86 0.81 0.62 0.46 0.39 0.39
0.49 0.50 0.47 0.42 0.36 0.32 0.32 0.36 0.38 0.38 0.36 0.31 0.26 0.22 0.23 0.26 0.29 0.33 0.31 0.33 0.31 0.26 0.22 0.19 0.17 0.14 0.13 0.12 0.12 0.15 0.20 0.23 0.30 0.65 1.07 1.14 0.96 1.03 1.03 0.81 0.55 0.43 0.38
0.95 0.97 0.86 0.74 0.61 0.62 0.57 0.46 0.49 0.49 0.47 0.40 0.35 0.31 0.34 0.41 0.48 0.52 0.44 0.47 0.39 0.32 0.29 0.27 0.23 0.20 0.17 0.15 0.17 0.19 0.19 0.22 0.40 0.70 1.19 1.20 1.25 1.27 1.24 1.04 0.78 0.62 0.52
1.36 1.24 1.05 1.04 0.99 0.93 0.81 0.71 0.70 0.61 0.58 0.53 0.59 0.50 0.56 0.81 0.93 0.83 0.80 0.66 0.60 0.53 0.45 0.42 0.38 0.31 0.23 0.23 0.27 0.26 0.21 0.28 0.44 0.73 1.01 1.15 1.26 1.41 1.39 1.18 0.94 0.79 0.73
1.46 1.26 1.24 1.34 1.29 1.31 1.27 1.21 1.10 1.03 0.95 0.84 0.92 0.89 0.94 0.96 0.94 1.00 1.03 0.89 0.81 0.76 0.73 0.72 0.56 0.45 0.44 0.49 0.49 0.41 0.35 0.40 0.46 0.65 0.91 1.05 1.18 1.43 1.51 1.32 1.10 1.00 0.90
1.80 1.56 1.45 1.34 1.41 1.59 1.57 1.52 1.50 1.47 1.43 1.35 1.31 1.16 1.24 1.30 1.33 1.29 1.39 1.36 1.35 1.27 1.18 1.08 0.94 0.81 0.75 0.76 0.78 0.76 0.64 0.58 0.68 0.86 1.02 1.01 1.09 1.36 1.53 1.46 1.27 1.16 1.04
2.23 2.04 1.79 1.71 1.68 1.69 1.77 1.78 1.54 1.58 1.65 1.77 1.72 1.52 1.53 1.50 1.54 1.70 1.73 1.79 1.70 1.77 1.68 1.49 1.26 1.17 1.08 0.93 0.90 0.91 0.88 0.85 0.89 0.95 1.12 1.19 1.18 1.33 1.56 1.63 1.49 1.37 1.33
2.39 2.29 2.11 1.94 1.89 1.79 1.95 2.09 1.95 1.80 1.83 1.85 1.91 1.78 1.77 1.78 1.84 1.91 1.96 2.02 1.88 1.85 1.88 1.76 1.51 1.39 1.33 1.20 1.06 1.00 0.97 1.03 1.06 1.02 1.20 1.31 1.26 1.23 1.42 1.69 1.79 1.81 1.81
2.49 2.30 2.31 2.17 2.27 2.33 2.47 2.49 2.49 2.40 2.37 2.30 2.22 2.22 2.15 2.11 2.13 2.08 2.25 2.32 2.17 2.10 2.07 1.96 1.85 1.64 1.59 1.54 1.46 1.31 1.21 1.19 1.26 1.36 1.41 1.52 1.54 1.44 1.46 1.65 1.83 1.93 1.98
2.37 2.40 2.47 2.38 2.45 2.61 2.56 2.44 2.48 2.69 2.69 2.62 2.54 2.56 2.43 2.41 2.46 2.54 2.49 2.38 2.30 2.27 2.27 2.31 2.16 1.95 1.87 1.94 1.85 1.60 1.38 1.39 1.49 1.54 1.53 1.61 1.73 1.64 1.63 1.56 1.63 1.76 1.89
2.27 2.20 2.32 2.47 2.40 2.55 2.58 2.53 2.59 2.83 2.96 2.99 2.97 2.87 2.76 2.73 2.76 2.90 2.95 2.75 2.53 2.45 2.45 2.35 2.34 2.24 2.23 2.19 1.89 1.66 1.44 1.40 1.48 1.51 1.52 1.60 1.76 1.81 1.80 1.63 1.65 1.83 1.94
2.20 2.20 2.24 2.49 2.45 2.60 2.73 2.63 2.70 2.74 2.83 2.96 3.09 3.18 3.32 3.36 3.34 3.33 3.20 3.00 2.83 2.72 2.68 2.59 2.53 2.50 2.35 2.18 1.80 1.62 1.44 1.33 1.35 1.42 1.46 1.49 1.54 1.59 1.63 1.62 1.64 1.62 1.73
2.30 2.31 2.23 2.27 2.43 2.51 2.66 2.80 3.04 3.04 3.02 3.29 3.55 3.70 3.91 3.98 3.81 3.75 3.63 3.42 3.23 3.02 2.86 2.69 2.55 2.46 2.28 2.10 1.92 1.72 1.47 1.24 1.25 1.30 1.30 1.32 1.37 1.37 1.43 1.48 1.59 1.56 1.49
2.36 2.33 2.39 2.57 2.61 2.71 3.04 3.49 3.89 4.19 4.35 4.44 4.65 4.68 4.59 4.44 4.30 4.17 4.03 3.79 3.52 3.29 3.05 2.82 2.56 2.38 2.20 2.03 1.96 1.98 1.75 1.51 1.21 1.05 1.04 1.05 1.08 1.08 1.13 1.22 1.24 1.28 1.28
2.19 2.36 2.43 2.74 3.08 3.42 3.89 4.42 4.83 5.18 5.38 5.28 5.11 4.99 4.78 4.56 4.36 4.04 3.81 3.72 3.49 3.14 2.91 2.72 2.51 2.31 2.10 1.95 1.84 1.93 1.86 1.67 1.40 1.21 1.02 0.90 0.90 0.97 1.02 1.10 1.13 1.08 1.05
1.93 2.20 2.50 2.81 3.36 4.10 4.74 5.28 5.74 5.93 5.90 5.76 5.49 5.11 4.72 4.40 4.07 3.76 3.48 3.19 2.94 2.68 2.45 2.30 2.18 2.10 2.01 1.90 1.81 1.61 1.42 1.27 1.31 1.26 1.11 0.98 0.92 0.95 0.93 0.91 0.94 0.96 0.94
1.78 2.06 2.44 2.88 3.52 4.17 4.78 5.34 5.77 5.95 5.85 5.57 5.13 4.62 4.13 3.66 3.28 2.99 2.73 2.45 2.20 2.00 1.84 1.68 1.63 1.74 1.81 1.81 1.80 1.72 1.54 1.36 1.23 1.17 1.16 1.10 1.02 0.99 0.95 0.90 0.87 0.86 0.83
1.55 1.86 2.23 2.66 3.19 3.67 4.07 4.59 4.91 5.07 5.00 4.67 4.18 3.59 3.15 2.83 2.52 2.26 2.03 1.83 1.63 1.47 1.36 1.28 1.26 1.32 1.41 1.49 1.52 1.54 1.54 1.54 1.49 1.38 1.30 1.25 1.20 1.14 1.04 0.98 0.95 0.94 0.90